Tracking 27124 objects as of 31-Mar-2023
HD Live streaming from Space Station
objects crossing your sky now

STARLINK-4727

Track STARLINK-4727 now!
10-day predictions
STARLINK-4727 is classified as:


NORAD ID: 53803
Int'l Code: 2022-111AG
Perigee: 545.7 km
Apogee: 548.0 km
Inclination: 53.2 °
Period: 95.4 minutes
Semi major axis: 6917 km
RCS: Unknown
Launch date: September 11, 2022
Source: United States (US)
Launch site: AIR FORCE EASTERN TEST RANGE (AFETR)
Your satellite tracking list
Your tracking list is empty




NASA's NSSDC Master Catalog

Two Line Element Set (TLE):
1 53803U 22111AG  23090.14623094  .00018968  00000-0  12061-2 0  9993
2 53803  53.2196  33.1843 0001641 112.6819 247.4347 15.08855962 30990
Source of the keplerian elements: AFSPC